Regional Weather Roundup
Issued by NWS

Home | Current Version | Previous Version | Text Only | Print | Product List | Glossary On
Versions: 1 2 3 4 5 6 7 8 9 10 11 12 13 14 15 16 17 18 19 20 21 22 23 24 25 26 27 28 29 30 31 32 33 34 35 36 37 38 39 40 41 42 43 44 45 46 47 48 49 50
000
ASUS44 KOUN 021510
RWROK

WEATHER ROUNDUP FOR OKLAHOMA
NATIONAL WEATHER SERVICE NORMAN OK
1000 AM CDT TUE JUN 02 2015

NOTE: "FAIR" INDICATES FEW OR NO CLOUDS BELOW 12,000 FEET WITH NO
      SIGNIFICANT WEATHER AND/OR OBSTRUCTIONS TO VISIBILITY.

OKZ001>007-009>012-014-015-017-021600-
NORTHWEST OKLAHOMA AND THE PANHANDLE

CITY           SKY/WX    TMP DP  RH WIND       PRES   REMARKS
GAGE           SUNNY     75  65  70 S16       29.97S
GUYMON         SUNNY     78  58  49 S18G25    29.93F
ENID/WOODRING  MOSUNNY   79  64  61 SE14      29.98F
$$

OKZ016-021>023-033>039-044-045-021600-
SOUTHWEST OKLAHOMA

CITY           SKY/WX    TMP DP  RH WIND       PRES   REMARKS
LAWTON/REGL    SUNNY     77  64  64 S10       30.02R
LAWTON/FT SILL SUNNY     77  67  72 S12G20    30.00R
FREDERICK      SUNNY     78  66  66 S10       29.99R
CLINTON        SUNNY     77  64  64 S15       30.01F
HOBART         SUNNY     77  64  64 S15       30.00F
ALTUS AFB      SUNNY     78  67  69 S13       29.99F
$$

OKZ018>020-024>031-021600-
CENTRAL OKLAHOMA

CITY           SKY/WX    TMP DP  RH WIND       PRES   REMARKS
OKLAHOMA CITY  PTSUNNY   77  62  59 S15       30.01S
OKC/WILEY POST SUNNY     78  63  59 S17G25    30.00S
OKC/TINKER AFB SUNNY     76  62  63 S15       30.01S
STILLWATER     SUNNY     77  62  59 S13       30.01S
GUTHRIE        SUNNY     77  63  61 S12       30.00F
$$

OKZ008-013-054>072-021600-
NORTHEAST OKLAHOMA

CITY           SKY/WX    TMP DP  RH WIND       PRES   REMARKS
TULSA          CLOUDY    74  65  73 SE8       30.02F
TULSA/JONES    PTSUNNY   74  64  71 S6        30.04F
PONCA CITY     MOSUNNY   76  63  64 SE13      30.01F
BARTLESVILLE   HAZE      72  65  78 SE6       30.05F VSB 3/4
MUSKOGEE       MOSUNNY   74  66  76 S9        30.07S
$$

OKZ032-040>043-046>053-073>077-021600-
SOUTH CENTRAL/SOUTHEAST OKLAHOMA

CITY           SKY/WX    TMP DP  RH WIND       PRES   REMARKS
ARDMORE/DWNTWN MOSUNNY   75  63  64 S9        30.04F
MCALESTER      MOSUNNY   76  65  68 S8        30.06S
$$



USA.gov is the U.S. government's official web portal to all federal, state and local government web resources and services.